Location: Munkebjergskolens Observatorium
(55.3864°N, 10.3987°E)
Time: 03:28:07
(UTC+02:00)

KKS-1 - Pass Details

Date: 10 April 2023
Orbit: 633 x 644 km, 98.2° (Epoch: 31 May)

Event Time Altitude Azimuth Distance (km) Brightness Sun altitude
Rises 22:56:05 0° 24° (NNE) 2,946 ? -19.9°
Reaches altitude 10° 22:58:46 10° 41° (NE) 2,033 ? -20.1°
Enters shadow 23:01:22 20° 76° (ENE) 1,473 ? -20.3°
